Satellite: OKEAN-4
Catalog number: 23317
Epoch time:      09159.79890566
Element set:    0932
Inclination:      082.5378 deg
RA of node:       342.3153 deg
Eccentricity:    0.0023448
Arg of perigee:   035.4348 deg
Mean anomaly:     324.8410 deg
Mean motion:   14.82700493 rev/day
Decay rate:       -4.9e-07 rev/day^2
Epoch rev:           79112
Checksum:              315

Satellite: NOAA-14
Catalog number: 23455
Epoch time:      09159.74874141
Element set:    0646
Inclination:      098.9096 deg
RA of node:       237.4583 deg
Eccentricity:    0.0009077
Arg of perigee:   209.7503 deg
Mean anomaly:     150.3142 deg
Mean motion:   14.13764132 rev/day
Decay rate:        7.7e-07 rev/day^2
Epoch rev:           74473
Checksum:              320

Satellite: NOAA-15
Catalog number: 25338
Epoch time:      09159.76620689
Element set:    0957
Inclination:      098.5833 deg
RA of node:       149.1580 deg
Eccentricity:    0.0011785
Arg of perigee:   083.2590 deg
Mean anomaly:     276.9896 deg
Mean motion:   14.24764798 rev/day
Decay rate:        6.7e-07 rev/day^2
Epoch rev:           57557
Checksum:              381

Satellite: RESURS
Catalog number: 25394
Epoch time:      09159.72946239
Element set:     232
Inclination:      098.3409 deg
RA of node:       192.5078 deg
Eccentricity:    0.0000486
Arg of perigee:   216.7551 deg
Mean anomaly:     143.3595 deg
Mean motion:   14.24183567 rev/day
Decay rate:       -3.5e-07 rev/day^2
Epoch rev:           56719
Checksum:              324

Satellite: FENGYUN1
Catalog number: 25730
Epoch time:      09159.96756479
Element set:    0828
Inclination:      098.7558 deg
RA of node:       130.3802 deg
Eccentricity:    0.0019411
Arg of perigee:   244.0997 deg
Mean anomaly:     115.8172 deg
Mean motion:   14.07925865 rev/day
Decay rate:      -4.99e-06 rev/day^2
Epoch rev:           51916
Checksum:              349

Satellite: OKEAN-0
Catalog number: 25860
Epoch time:      09159.47989610
Element set:    0699
Inclination:      097.7847 deg
RA of node:       141.0060 deg
Eccentricity:    0.0000982
Arg of perigee:   111.0103 deg
Mean anomaly:     249.1206 deg
Mean motion:   14.73575854 rev/day
Decay rate:        2.3e-07 rev/day^2
Epoch rev:           53186
Checksum:              305

Satellite: NOAA-16
Catalog number: 26536
Epoch time:      09159.72138762
Element set:    0434
Inclination:      099.1757 deg
RA of node:       163.1829 deg
Eccentricity:    0.0009764
Arg of perigee:   309.0572 deg
Mean anomaly:     050.9735 deg
Mean motion:   14.12519944 rev/day
Decay rate:       -3.0e-07 rev/day^2
Epoch rev:           44910
Checksum:              322

Satellite: NOAA-17
Catalog number: 27453
Epoch time:      09159.77999706
Element set:    0442
Inclination:      098.4851 deg
RA of node:       219.1394 deg
Eccentricity:    0.0012350
Arg of perigee:   144.3037 deg
Mean anomaly:     215.8986 deg
Mean motion:   14.24068303 rev/day
Decay rate:        6.2e-07 rev/day^2
Epoch rev:           36155
Checksum:              323

Satellite: NOAA-18
Catalog number: 28654
Epoch time:      09159.75206716
Element set:    0931
Inclination:      098.9077 deg
RA of node:       103.0573 deg
Eccentricity:    0.0014855
Arg of perigee:   030.5234 deg
Mean anomaly:     329.6789 deg
Mean motion:   14.11263634 rev/day
Decay rate:       2.55e-06 rev/day^2
Epoch rev:           20876
Checksum:              324

Satellite: NOAA-19
Catalog number: 33591
Epoch time:      09159.80114837
Element set:    0134
Inclination:      098.7467 deg
RA of node:       105.7813 deg
Eccentricity:    0.0013037
Arg of perigee:   267.8112 deg
Mean anomaly:     092.1547 deg
Mean motion:   14.10961993 rev/day
Decay rate:      -1.70e-06 rev/day^2
Epoch rev:           01725
Checksum:              307

/EX
SB KEPS @ AMSAT  $ORB09160.M
Orbital Elements  09160.MISC

HR AMSAT ORBITAL ELEMENTS FOR MANNED AND MISCELLANEOUS SATELLITES
FROM WA5QGD FORT WORTH,TX June 9, 2009
Send Subscribe/unsubscribe to KEPS at 
http://www.amsat.org/mailman/listinfo/keps
BID: ORB09160.M
TO ALL RADIO AMATEURS BT

Satellite: HUBBLE
Catalog number: 20580
Epoch time:      09157.14058997
Element set:    0404
Inclination:      028.4691 deg
RA of node:       174.3963 deg
Eccentricity:    0.0003622
Arg of perigee:   167.2659 deg
Mean anomaly:     192.8159 deg
Mean motion:   15.00806741 rev/day
Decay rate:       2.82e-06 rev/day^2
Epoch rev:           84819
Checksum:              318

Satellite: ISS
Catalog number: 25544
Epoch time:      09159.87555255
Element set:    0000
Inclination:      051.6405 deg
RA of node:       349.5574 deg
Eccentricity:    0.0009226
Arg of perigee:   090.8365 deg
Mean anomaly:     050.5612 deg
Mean motion:   15.73534044 rev/day
Decay rate:     1.7868e-04 rev/day^2
Epoch rev:           60464
Checksum:              306

Satellite: CO-58
Catalog number: 28895
Epoch time:      09160.66116324
Element set:     323
Inclination:      098.0615 deg
RA of node:       051.4899 deg
Eccentricity:    0.0018218
Arg of perigee:   015.7674 deg
Mean anomaly:     344.4129 deg
Mean motion:   14.59774242 rev/day
Decay rate:       2.79e-06 rev/day^2
Epoch rev:           19263
Checksum:              334

